Location: B�rgermoos
(47.6500°N, 9.0667°E)
Time: 15:22:39
(UTC+00:00)

Vanguard 2 Rocket - Pass Details

Date: 11 August 2021
Orbit: 555 x 3324 km, 32.9° (Epoch: 18 September)

Event Time Altitude Azimuth Distance (km) Brightness Sun altitude
Rises 02:30:37 0° 217° (SW) 5,268 - -15.2°
Reaches altitude 10° 02:36:32 10° 197° (SSW) 3,614 - -14.5°
Exits shadow 02:37:10 11° 194° (SSW) 3,459 9.4 -14.4°
Maximum altitude 02:40:45 14° 168° (SSE) 2,808 9.1 -14.0°
Drops below altitude 10° 02:44:08 10° 137° (SE) 2,751 9.4 -13.5°
Sets 02:47:35 0° 112° (ESE) 3,331 10.2 -13.1°
